Wind_Speed
21 21 24 24 17 20 19 13 10 7 2 6 10 2 11 25 25 20 14 15 21 26 22 22 19 17 17 17 17 14 13 16 15 15 22 23 18 17 15 15 12 9 10 8
25 32 28 20 20 23 25 24 8 7 6 10 10 4 10 25 19 19 23 16 18 24 25 24 20 15 14 16 17 14 13 14 15 17 22 20 21 16 15 14 10 9 7 9
30 30 26 24 24 26 26 25 22 10 11 13 14 18 15 24 18 18 31 27 16 18 26 25 19 15 14 18 17 15 13 14 16 19 21 23 21 18 16 13 10 7 7 8
33 29 28 30 28 25 29 21 21 12 23 12 24 12 18 25 30 29 17 36 22 15 24 24 20 15 13 16 20 18 16 16 17 17 19 22 19 18 17 13 10 8 7 6
37 33 30 32 31 25 28 25 22 24 21 9 23 18 18 20 32 25 27 30 19 16 17 17 19 16 15 17 20 20 20 19 20 18 17 21 22 21 17 14 10 9 8 5
34 27 33 34 30 30 26 27 26 19 11 9 22 34 15 25 27 26 26 35 23 15 17 16 15 14 16 16 19 22 22 22 21 22 20 20 22 23 21 17 13 9 7 7
30 35 34 32 31 32 31 30 17 6 2 7 22 24 15 20 17 23 29 35 30 21 18 14 19 18 18 15 17 20 23 24 21 23 22 20 21 23 23 19 14 10 7 7
32 29 36 33 38 35 32 30 20 5 3 13 21 21 13 18 25 17 22 29 34 25 25 16 11 8 13 14 14 19 21 23 24 23 24 22 26 26 22 19 16 12 10 9
19 37 24 34 33 31 37 36 27 29 21 12 17 22 10 21 21 15 27 24 37 28 31 24 16 14 10 7 7 14 20 22 25 23 24 24 27 27 23 21 18 13 13 13
31 36 22 31 31 36 35 34 26 25 7 6 17 8 4 29 14 16 16 26 38 16 32 25 18 14 15 13 11 10 16 22 24 26 23 25 27 29 27 23 21 17 14 11
33 26 33 25 37 37 39 37 32 23 23 6 3 15 19 17 13 6 2 20 24 26 15 27 27 23 21 17 13 14 12 20 25 27 26 24 28 30 32 28 24 21 18 15
33 36 30 41 29 29 38 39 31 21 27 15 13 17 21 23 23 26 6 29 22 23 21 19 22 22 24 20 16 17 14 17 24 25 26 26 26 31 33 32 30 27 22 19
17 16 25 34 33 31 28 40 40 28 33 33 9 7 19 22 14 25 15 23 20 24 18 19 14 15 22 15 15 16 13 13 20 24 25 26 26 30 33 34 33 32 28 25
10 15 6 12 19 21 22 25 42 37 30 30 32 21 21 26 19 17 26 17 9 16 18 15 13 14 15 15 16 15 15 14 12 18 22 26 27 28 30 32 35 35 33 30
10 15 16 18 21 22 26 19 38 40 33 23 23 20 11 18 25 27 34 18 18 17 16 15 21 16 15 15 14 15 18 20 18 14 17 22 26 27 28 32 35 36 37 35
10 9 18 23 28 21 24 31 20 46 32 29 25 13 13 32 36 31 22 22 27 22 18 18 15 14 20 22 23 19 18 22 23 21 16 17 22 29 29 30 34 36 38 38
11 11 15 20 23 19 23 21 9 24 26 25 13 24 20 31 35 31 30 29 23 22 15 18 15 16 16 13 11 18 20 21 27 27 21 20 21 23 29 30 32 35 36 38
5 9 6 8 12 5 6 9 2 21 18 21 26 26 31 37 35 36 26 27 22 17 14 8 12 20 15 16 15 13 17 21 25 25 26 22 21 21 24 30 34 34 34 36
5 2 5 6 13 10 3 7 13 13 16 20 23 26 25 24 34 37 24 22 27 21 16 14 12 15 20 21 15 19 17 21 26 25 24 27 28 23 23 27 31 34 36 36
4 5 7 11 4 1 8 3 14 6 13 9 10 17 20 22 22 21 20 24 23 21 19 18 17 20 20 21 23 22 22 27 27 28 26 26 29 29 24 21 24 27 33 37
10 10 14 15 8 1 8 21 8 4 6 2 3 9 15 15 14 13 12 12 13 15 18 20 21 23 26 26 29 33 29 26 28 27 25 27 29 30 29 28 27 27 28 30
15 9 17 14 13 1 3 13 6 9 4 1 2 2 6 4 4 6 7 9 10 12 16 20 23 28 30 28 28 33 30 29 28 26 24 25 28 30 31 31 30 31 33 35
7 3 10 2 11 8 8 3 5 6 14 4 3 4 3 1 6 7 9 8 10 11 14 18 21 26 28 29 29 28 33 31 30 27 26 24 28 29 29 32 34 35 36 38
11 8 15 12 14 14 20 14 7 4 8 14 12 7 6 6 7 12 13 14 13 13 15 18 19 24 24 24 27 28 28 33 31 26 26 28 28 30 32 32 34 35 37 38
6 15 19 21 19 14 17 17 7 2 5 4 4 13 11 15 15 19 22 20 20 19 18 18 18 19 20 20 21 25 29 31 33 31 28 29 30 32 33 34 35 36 35 35
5 8 6 7 7 12 14 11 11 14 14 11 9 11 14 16 20 21 23 24 23 22 21 20 20 19 19 21 23 23 27 32 35 36 32 29 32 36 36 37 37 36 33 31
Wind_Direction
227 231 233 241 238 253 271 263 199 191 219 153 109 26 217 178 182 203 214 201 198 205 214 217 220 211 192 185 197 194 182 173 176 165 159 142 152 130 137 127 119 102 97 115
224 230 233 235 245 252 260 260 207 199 242 215 211 77 191 180 190 196 206 207 197 200 217 218 215 213 198 189 200 196 186 184 170 166 166 156 161 145 139 127 118 103 103 101
223 230 233 236 242 252 260 263 185 274 214 205 236 249 188 189 172 199 205 210 207 205 216 217 214 213 198 188 201 199 189 193 188 175 178 162 157 159 147 136 126 111 104 92
226 226 231 235 239 244 258 245 221 194 166 212 250 262 220 182 192 219 186 193 208 210 219 219 217 211 196 187 194 197 192 195 205 197 192 182 172 160 156 147 140 137 118 108
231 225 229 237 236 237 249 248 267 192 234 224 232 237 227 179 203 214 198 197 210 215 207 201 211 215 208 191 192 201 191 198 204 208 207 194 186 168 170 156 157 147 123 125
233 232 229 237 239 239 245 257 266 251 219 249 242 211 186 200 199 204 206 197 212 220 218 209 211 218 224 206 196 201 197 200 205 207 208 212 190 182 178 169 165 153 143 132
234 235 231 234 241 239 241 247 263 266 316 246 256 271 201 199 226 210 202 211 213 225 234 223 210 213 220 217 206 208 203 199 207 209 208 208 206 197 186 175 171 166 162 148
233 244 227 223 233 238 243 245 232 189 220 249 247 263 222 220 203 201 195 200 217 218 232 232 223 200 223 240 224 210 211 202 211 209 207 205 209 208 201 181 182 178 186 173
248 240 231 231 228 233 242 250 240 245 231 244 266 268 257 178 185 207 188 204 203 210 231 236 251 252 240 256 275 239 209 213 213 213 211 203 210 215 212 191 193 194 195 179
237 256 236 233 233 236 238 243 249 243 212 231 264 309 14 164 178 216 177 174 203 213 204 234 240 263 269 266 286 281 229 217 218 216 216 207 210 216 218 207 203 201 207 192
235 242 240 238 235 234 232 240 243 245 251 198 218 271 233 190 259 223 227 197 199 198 184 224 233 247 256 262 279 288 265 226 218 218 217 216 210 216 222 215 210 211 213 202
230 232 234 239 230 237 236 236 241 211 233 255 219 278 253 229 236 254 242 187 171 181 183 178 222 232 237 245 271 285 295 249 223 218 219 219 219 217 222 221 216 213 221 219
206 218 215 241 252 242 248 232 234 232 233 238 250 231 156 166 181 204 159 162 162 185 174 181 196 209 226 242 263 265 284 263 228 219 220 220 222 221 221 224 222 221 219 224
248 238 235 230 237 235 236 241 231 232 214 226 240 243 209 169 173 206 189 183 169 182 196 212 174 179 219 242 250 263 278 294 253 225 223 225 223 225 223 227 226 227 225 227
242 248 245 249 249 250 269 285 227 230 230 219 233 242 230 191 188 175 175 181 193 182 160 181 180 156 172 236 260 275 279 284 284 264 239 231 233 231 227 227 231 230 230 228
218 237 247 260 254 283 282 274 266 220 221 226 228 131 140 174 148 141 166 191 206 211 198 173 181 180 189 191 206 243 268 276 276 276 263 249 239 235 234 231 231 234 235 233
213 233 238 251 263 274 277 264 258 217 211 223 195 136 154 161 176 169 167 191 191 187 193 192 191 199 205 206 216 216 222 262 270 269 263 252 246 240 236 236 236 237 238 240
237 251 253 267 253 247 251 242 253 138 130 131 155 144 168 172 169 177 185 199 224 221 220 202 189 208 222 226 239 261 256 243 247 266 264 258 248 236 235 235 235 238 241 241
167 284 266 259 271 258 253 80 87 157 100 136 157 159 167 178 192 187 183 196 212 216 221 237 241 222 229 238 249 275 268 266 264 249 259 261 259 250 240 235 236 237 240 242
244 259 286 259 318 302 72 18 127 150 130 89 110 131 162 186 192 185 183 193 208 222 234 243 263 260 245 246 239 254 267 268 262 257 247 258 257 254 245 237 239 243 245 247
232 249 264 273 260 107 258 276 252 213 131 220 90 73 134 179 209 194 194 200 217 235 250 257 264 260 265 249 239 237 247 256 264 261 253 248 249 251 250 248 240 239 244 247
215 229 245 271 264 285 307 287 302 135 40 227 223 163 59 119 210 230 229 218 213 235 256 266 270 276 273 263 250 247 248 247 254 260 261 253 251 249 253 253 252 249 247 248
83 195 205 143 98 54 28 142 343 170 197 281 290 89 114 157 269 268 266 258 257 257 262 266 266 269 270 271 266 254 246 248 248 251 258 256 253 253 251 251 253 255 256 256
93 79 120 145 113 106 88 74 117 207 227 223 253 239 258 274 267 284 288 286 282 272 269 270 274 270 273 274 271 268 256 246 247 243 248 255 258 250 253 255 257 259 260 262
62 98 101 127 128 130 125 124 131 131 146 130 278 256 250 250 250 263 272 277 282 284 279 276 271 279 281 283 278 269 260 249 247 244 240 245 253 254 252 256 262 266 268 265
17 56 105 135 145 155 187 172 185 224 239 212 196 270 256 266 269 264 265 269 273 276 278 280 285 287 288 288 283 281 263 254 248 248 243 238 248 254 253 255 259 264 266 264
Height
3148 3151 3151 3154 3155 3157 3159 3160 3160 3162 3162 3163 3164 3165 3164 3168 3171 3176 3179 3178 3180 3183 3184 3186 3188 3189 3191 3195 3197 3199 3203 3206 3208 3211 3212 3214 3217 3219 3223 3227 3230 3230 3231 3232
3145 3142 3148 3153 3154 3155 3155 3158 3160 3163 3162 3163 3163 3162 3163 3166 3172 3175 3175 3177 3178 3181 3183 3184 3185 3187 3190 3195 3197 3200 3203 3207 3208 3211 3213 3216 3218 3220 3223 3226 3228 3230 3231 3231
3136 3140 3146 3149 3151 3152 3151 3154 3155 3161 3163 3162 3165 3160 3163 3167 3173 3170 3170 3174 3177 3177 3180 3181 3182 3185 3188 3192 3196 3200 3203 3207 3209 3211 3213 3215 3217 3220 3224 3226 3228 3229 3230 3231
3132 3137 3141 3144 3147 3149 3148 3149 3153 3162 3161 3160 3161 3159 3160 3162 3164 3160 3164 3167 3174 3176 3177 3180 3181 3183 3187 3191 3194 3198 3203 3206 3208 3211 3213 3215 3218 3223 3225 3228 3230 3231 3232 3232
3123 3131 3135 3136 3141 3146 3145 3145 3151 3155 3154 3157 3157 3162 3149 3157 3158 3156 3159 3164 3171 3173 3174 3177 3179 3181 3184 3188 3192 3196 3200 3204 3207 3210 3212 3215 3218 3222 3226 3229 3231 3232 3233 3234
3121 3128 3130 3132 3137 3141 3144 3144 3145 3149 3150 3151 3149 3151 3145 3152 3153 3154 3159 3161 3169 3171 3174 3176 3178 3180 3181 3186 3189 3193 3197 3201 3205 3208 3210 3214 3217 3220 3224 3228 3231 3232 3234 3235
3117 3118 3123 3129 3132 3134 3138 3141 3142 3144 3145 3148 3141 3141 3141 3143 3150 3153 3159 3161 3165 3169 3172 3173 3174 3177 3178 3181 3187 3191 3194 3198 3202 3206 3208 3211 3216 3218 3221 3225 3229 3231 3234 3235
3111 3113 3115 3119 3124 3128 3131 3136 3138 3144 3148 3142 3138 3137 3135 3137 3144 3149 3151 3160 3163 3165 3169 3169 3172 3174 3178 3179 3184 3188 3192 3195 3199 3203 3206 3210 3213 3216 3220 3224 3227 3230 3233 3234
3107 3105 3113 3116 3120 3126 3125 3128 3135 3136 3137 3139 3135 3135 3135 3140 3144 3148 3147 3142 3157 3162 3165 3168 3167 3169 3174 3177 3180 3185 3189 3192 3196 3200 3204 3207 3210 3215 3219 3222 3225 3228 3232 3233
3102 3104 3106 3110 3117 3116 3120 3126 3130 3129 3135 3139 3132 3135 3142 3139 3144 3147 3145 3142 3150 3154 3157 3163 3163 3166 3170 3174 3178 3182 3187 3190 3194 3197 3200 3204 3207 3212 3216 3220 3223 3226 3229 3232
3097 3100 3100 3104 3106 3110 3114 3116 3122 3125 3128 3131 3133 3133 3138 3140 3141 3145 3151 3149 3154 3156 3158 3158 3159 3165 3168 3171 3175 3179 3183 3188 3190 3193 3197 3200 3204 3208 3212 3217 3221 3223 3225 3230
3090 3091 3094 3093 3098 3107 3109 3111 3116 3117 3124 3126 3127 3130 3128 3131 3143 3144 3149 3148 3156 3155 3154 3157 3158 3160 3166 3171 3173 3176 3179 3183 3188 3190 3193 3196 3201 3204 3208 3213 3218 3221 3224 3226
3082 3085 3088 3092 3096 3096 3101 3104 3110 3115 3120 3121 3127 3131 3127 3131 3137 3141 3145 3143 3147 3147 3153 3154 3157 3159 3164 3169 3171 3174 3176 3180 3184 3186 3188 3192 3196 3200 3203 3208 3213 3217 3220 3223
3080 3081 3083 3087 3090 3095 3097 3101 3103 3109 3111 3116 3121 3127 3130 3129 3131 3131 3143 3151 3147 3147 3152 3156 3155 3160 3165 3167 3170 3172 3173 3176 3180 3183 3184 3187 3191 3195 3199 3203 3208 3212 3216 3219
3080 3080 3082 3083 3085 3089 3091 3095 3098 3101 3107 3111 3119 3120 3123 3126 3128 3133 3140 3143 3147 3150 3151 3155 3158 3159 3161 3164 3166 3167 3171 3172 3175 3178 3180 3183 3187 3191 3194 3198 3202 3206 3209 3213
3080 3081 3083 3083 3084 3088 3090 3092 3091 3094 3101 3106 3113 3114 3118 3121 3126 3121 3133 3142 3147 3148 3151 3154 3157 3160 3161 3163 3163 3166 3167 3168 3170 3171 3175 3178 3181 3184 3188 3192 3196 3200 3203 3206
3080 3082 3084 3083 3086 3089 3090 3088 3086 3090 3094 3098 3104 3112 3117 3120 3125 3128 3129 3137 3142 3145 3148 3151 3153 3158 3160 3158 3161 3161 3163 3165 3165 3166 3169 3172 3175 3178 3181 3186 3189 3193 3197 3200
3078 3080 3082 3083 3084 3088 3089 3081 3084 3082 3088 3095 3101 3108 3112 3114 3118 3121 3128 3135 3141 3143 3144 3146 3149 3152 3155 3156 3155 3154 3155 3157 3160 3160 3162 3166 3168 3171 3174 3177 3181 3185 3189 3191
3076 3078 3080 3082 3083 3083 3081 3082 3084 3085 3093 3095 3100 3104 3110 3112 3118 3121 3122 3128 3138 3141 3143 3143 3144 3146 3148 3150 3149 3149 3153 3154 3155 3156 3157 3159 3162 3164 3167 3169 3172 3176 3179 3181
3073 3077 3080 3080 3082 3078 3085 3085 3084 3088 3095 3099 3101 3103 3107 3111 3117 3121 3124 3128 3131 3135 3137 3138 3139 3140 3141 3143 3145 3145 3148 3148 3149 3151 3151 3153 3155 3157 3160 3163 3166 3169 3171 3173
3074 3076 3077 3079 3083 3081 3084 3086 3088 3089 3101 3098 3101 3103 3108 3111 3114 3117 3121 3125 3127 3129 3130 3132 3134 3135 3136 3137 3139 3142 3143 3142 3143 3144 3144 3147 3149 3151 3152 3155 3158 3160 3162 3164
3076 3078 3077 3077 3080 3086 3085 3087 3088 3091 3092 3095 3097 3101 3103 3107 3110 3113 3116 3118 3122 3124 3126 3126 3128 3128 3129 3130 3132 3134 3136 3136 3136 3137 3139 3140 3142 3144 3145 3147 3149 3152 3153 3154
3077 3078 3075 3078 3083 3085 3084 3083 3085 3090 3094 3097 3095 3098 3102 3105 3105 3109 3112 3113 3115 3116 3118 3120 3121 3121 3120 3121 3123 3125 3127 3128 3129 3130 3131 3133 3134 3135 3137 3139 3140 3142 3144 3145
3072 3077 3074 3076 3081 3082 3084 3088 3087 3089 3091 3092 3097 3097 3100 3101 3104 3104 3105 3106 3108 3110 3111 3112 3111 3112 3116 3117 3117 3117 3118 3120 3121 3122 3123 3125 3126 3128 3129 3131 3133 3134 3134 3135
3076 3076 3075 3075 3078 3083 3085 3085 3087 3086 3090 3093 3094 3096 3097 3099 3103 3103 3101 3101 3102 3103 3104 3106 3109 3111 3112 3112 3111 3110 3110 3111 3113 3113 3114 3116 3118 3119 3121 3123 3124 3124 3125 3125
3076 3076 3077 3078 3080 3081 3083 3084 3086 3088 3089 3093 3094 3095 3096 3095 3095 3097 3098 3100 3101 3102 3104 3105 3106 3106 3106 3105 3105 3104 3104 3103 3104 3105 3105 3106 3109 3111 3113 3114 3115 3116 3117 3117